Flag for Russia Weather past 2 weeks in Chelyabinsk, Russia

Now
3 °F

Sunny.


Feels Like: 3 °F
Forecast: -8 / 14 °F
Wind: 1 mph from North

Location: Chelyabinsk-Balandino

Current Time: Jan 30, 2015 at 12:13:58 PM

Latest Report: Jan 30, 2015 at 11:30 AM


Visibility: 10 mi

Pressure: 30.24 "Hg

Humidity: 46%

Dew point: -13 °F

Location of ChelyabinskLocation

Historic Weather in Chelyabinsk — Graph

°F

Chelyabinsk temperature yesterday

Maximum temperature yesterday: 19 °F (at 3:00 PM)
Minimum temperature yesterday: 1 °F (at 10:30 PM)
Average temperature yesterday: 12 °F

Past Weeks' High & Low Weather Summary

 TemperatureHumidityPressure
High37 °F (Jan 16, 5:00 PM)93% (Jan 17, 6:00 AM)30.86 "Hg (Jan 17, 6:00 AM)
Low-18 °F (Jan 25, 4:00 AM)14% (Jan 28, 12:30 AM)29.80 "Hg (Jan 15, 10:00 AM)
Average14 °F59%30.24 "Hg
* Reported Jan 15 10:00 AM — Jan 30 10:30 AM, Chelyabinsk, Weather by CustomWeather, © 2014

Note: Actual official high and low records may vary slightly from our data, if they occured in-between our weather recording intervals... More about our weather records

Advertising

Chelyabinsk weather history for previous 24 hours

 ConditionsComfort  
Time TempWeatherWind HumidityBarometerVisibility
10:30 AM
Jan 30
1 °FClear.1 mph46%30.21 "Hg10 mi
10:00 AM0 °FClear.No wind45%30.21 "Hg10 mi
9:30 AM-2 °FClear.No wind49%30.21 "Hg10 mi
9:00 AM-4 °FClear.3 mph54%30.21 "Hg10 mi
8:30 AM-6 °FClear.1 mph54%30.21 "Hg10 mi
8:00 AM3 °FClear.3 mph35%30.21 "Hg10 mi
7:30 AM3 °FClear.3 mph38%30.21 "Hg10 mi
7:00 AM7 °FClear.8 mph33%30.18 "Hg10 mi
6:30 AM7 °FClear.6 mph33%30.18 "Hg10 mi
6:00 AM7 °FClear.6 mph33%30.18 "Hg10 mi
5:30 AM7 °FClear.8 mph33%30.18 "Hg10 mi
5:00 AM3 °FClear.6 mph42%30.18 "Hg10 mi
4:30 AM5 °FClear.3 mph35%30.18 "Hg10 mi
4:00 AM5 °FClear.6 mph35%30.18 "Hg10 mi
3:30 AM5 °FClear.3 mph35%30.18 "Hg10 mi
3:00 AM5 °FClear.3 mph32%30.18 "Hg10 mi
2:30 AM3 °FClear.1 mph35%30.18 "Hg10 mi
2:00 AM1 °FClear.3 mph42%30.18 "Hg10 mi
1:30 AM5 °FClear.1 mph35%30.18 "Hg10 mi
1:00 AM3 °FClear.3 mph38%30.21 "Hg10 mi
12:30 AM1 °FClear.3 mph42%30.21 "Hg10 mi
12:00 AM1 °FClear.6 mph42%30.21 "Hg10 mi
11:30 PM
Jan 29
1 °FClear.3 mph46%30.21 "Hg10 mi
11:00 PM1 °FClear.6 mph46%30.21 "Hg10 mi
10:30 PM1 °FClear.3 mph42%30.21 "Hg10 mi
10:00 PM3 °FClear.8 mph42%30.21 "Hg10 mi
9:30 PM3 °FClear.6 mph42%30.21 "Hg10 mi
9:00 PM9 °FClear.6 mph30%30.21 "Hg10 mi
8:30 PM14 °FClear.10 mph22%30.21 "Hg10 mi
8:00 PM12 °FClear.10 mph26%30.21 "Hg10 mi
7:30 PM9 °FClear.8 mph36%30.24 "Hg10 mi
7:00 PM12 °FSunny.8 mph28%30.24 "Hg10 mi
6:30 PM16 °FSunny.10 mph20%30.24 "Hg10 mi
6:00 PM16 °FSunny.6 mph22%30.24 "Hg10 mi
5:30 PM12 °FPassing clouds.6 mph37%30.24 "HgN/A
5:00 PM16 °FBroken clouds.6 mph29%30.24 "Hg4 mi
4:30 PM18 °FBroken clouds.3 mph24%30.24 "Hg4 mi
4:00 PM18 °FSunny.6 mph27%30.24 "Hg10 mi
3:30 PM19 °FSunny.3 mph25%30.24 "Hg10 mi
3:00 PM19 °FBroken clouds.8 mph22%30.24 "Hg4 mi
2:30 PM18 °FBroken clouds.8 mph27%30.24 "Hg4 mi
2:00 PM16 °FSunny.10 mph26%30.24 "Hg10 mi
1:30 PM16 °FSunny.10 mph24%30.24 "Hg10 mi
1:00 PM16 °FBroken clouds.3 mph29%30.24 "Hg4 mi
12:30 PM14 °FSunny.8 mph31%30.27 "Hg10 mi
12:00 PM14 °FSunny.8 mph28%30.27 "Hg10 mi
Weather by CustomWeather, © 2014

See weather overviewHow to use our weather pages